| time (UTC) | temp F | wind direction | speed MPH | gust MPH | rain 1hr in | rain 24hr in | rain mn in | humidity % | barometer mb |
| 20260510153433 | 77 | 148 | 3.0 | 5.0 | 0.00 | 0.27 | 0.27 | 65 | 1017.6 |
| 20260510152433 | 76 | 147 | 3.0 | 7.0 | 0.00 | 0.27 | 0.27 | 66 | 1017.4 |
| 20260510151433 | 76 | 172 | 5.0 | 7.0 | 0.00 | 0.27 | 0.27 | 68 | 1017.0 |
| 20260510150433 | 75 | 118 | 1.0 | 2.0 | 0.00 | 0.27 | 0.27 | 71 | 1016.7 |
| 20260510145434 | 73 | 170 | 5.0 | 8.0 | 0.00 | 0.27 | 0.27 | 74 | 1017.3 |
| 20260510144433 | 72 | 88 | 3.0 | 5.0 | 0.00 | 0.27 | 0.27 | 77 | 1017.4 |
| 20260510143433 | 71 | 167 | 11.0 | 14.0 | 0.00 | 0.27 | 0.27 | 78 | 1017.1 |
| 20260510142434 | 70 | 115 | 5.0 | 8.0 | 0.00 | 0.27 | 0.27 | 81 | 1017.2 |
| 20260510141434 | 70 | 105 | 5.0 | 7.0 | 0.00 | 0.27 | 0.27 | 81 | 1017.6 |
| 20260510140434 | 69 | 89 | 4.0 | 6.0 | 0.00 | 0.27 | 0.27 | 83 | 1017.7 |
| 20260510135433 | 69 | 172 | 3.0 | 5.0 | 0.00 | 0.27 | 0.27 | 86 | 1018.0 |
| 20260510134433 | 67 | 97 | 3.0 | 5.0 | 0.00 | 0.27 | 0.27 | 87 | 1018.5 |
| 20260510133434 | 67 | 159 | 2.0 | 2.0 | 0.00 | 0.27 | 0.27 | 87 | 1018.6 |
| 20260510132434 | 67 | 143 | 3.0 | 3.0 | 0.00 | 0.27 | 0.27 | 88 | 1018.5 |
| 20260510131433 | 67 | 139 | 1.0 | 3.0 | 0.00 | 0.27 | 0.27 | 89 | 1018.6 |
| 20260510130433 | 67 | 137 | 5.0 | 6.0 | 0.00 | 0.27 | 0.27 | 89 | 1018.4 |
| 20260510125434 | 66 | 127 | 4.0 | 5.0 | 0.00 | 0.27 | 0.27 | 90 | 1018.1 |
| 20260510124434 | 65 | 129 | 2.0 | 3.0 | 0.00 | 0.27 | 0.27 | 90 | 1018.2 |
| 20260510123433 | 65 | 141 | 3.0 | 6.0 | 0.00 | 0.27 | 0.27 | 89 | 1018.2 |
| 20260510122434 | 65 | 113 | 5.0 | 7.0 | 0.00 | 0.27 | 0.27 | 91 | 1017.9 |
| 20260510121434 | 64 | 124 | 3.0 | 5.0 | 0.00 | 0.27 | 0.27 | 92 | 1017.9 |
| 20260510120434 | 64 | 106 | 3.0 | 5.0 | 0.00 | 0.27 | 0.27 | 93 | 1018.0 |
| 20260510115434 | 64 | 123 | 2.0 | 2.0 | 0.00 | 0.27 | 0.27 | 93 | 1017.9 |
| 20260510114434 | 64 | 104 | 1.0 | 2.0 | 0.00 | 0.27 | 0.27 | 93 | 1017.7 |
| 20260510113433 | 64 | 106 | 3.0 | 3.0 | 0.00 | 0.27 | 0.27 | 92 | 1017.9 |
| 20260510112514 | 64 | 92 | 4.0 | 5.0 | 0.00 | 0.27 | 0.27 | 92 | 1017.7 |
| 20260510111434 | 64 | 117 | 3.0 | 3.0 | 0.00 | 0.27 | 0.27 | 92 | 1017.6 |
| 20260510110433 | 64 | 124 | 3.0 | 3.0 | 0.00 | 0.27 | 0.27 | 93 | 1017.4 |
| 20260510105434 | 64 | 125 | 2.0 | 2.0 | 0.00 | 0.27 | 0.27 | 93 | 1017.5 |
| 20260510104434 | 64 | 118 | 0.0 | 1.0 | 0.02 | 0.27 | 0.27 | 93 | 1017.4 |
| 20260510103433 | 64 | 92 | 2.0 | 2.0 | 0.03 | 0.27 | 0.27 | 93 | 1017.4 |
| 20260510102434 | 64 | 107 | 5.0 | 7.0 | 0.10 | 0.27 | 0.27 | 94 | 1016.4 |
| 20260510101433 | 64 | 99 | 4.0 | 5.0 | 0.21 | 0.27 | 0.27 | 94 | 1016.6 |
| 20260510100433 | 64 | 77 | 6.0 | 7.0 | 0.23 | 0.27 | 0.27 | 95 | 1017.2 |
| 20260510095454 | 64 | 85 | 9.0 | 10.0 | 0.23 | 0.27 | 0.27 | 94 | 1017.2 |
| 20260510094434 | 64 | 84 | 12.0 | 14.0 | 0.21 | 0.25 | 0.25 | 94 | 1017.1 |
| 20260510093454 | 63 | 82 | 4.0 | 6.0 | 0.20 | 0.23 | 0.23 | 94 | 1017.7 |
| 20260510092454 | 64 | 77 | 14.0 | 17.0 | 0.13 | 0.16 | 0.16 | 92 | 1017.3 |
| 20260510091434 | 66 | 54 | 10.0 | 17.0 | 0.03 | 0.06 | 0.06 | 89 | 1017.9 |
| 20260510090433 | 67 | 76 | 13.0 | 16.0 | 0.00 | 0.03 | 0.03 | 84 | 1017.7 |
| 20260510085434 | 69 | 284 | 18.0 | 21.0 | 0.00 | 0.03 | 0.03 | 79 | 1017.9 |
| 20260510084433 | 71 | 342 | 10.0 | 14.0 | 0.00 | 0.03 | 0.03 | 84 | 1017.4 |
| 20260510083434 | 71 | 47 | 5.0 | 6.0 | 0.00 | 0.03 | 0.03 | 86 | 1016.4 |
| 20260510082414 | 72 | 22 | 7.0 | 9.0 | 0.00 | 0.03 | 0.03 | 90 | 1016.1 |
| 20260510081406 | 73 | 44 | 5.0 | 6.0 | 0.00 | 0.03 | 0.03 | 93 | 1015.7 |
| 20260510080415 | 72 | 64 | 2.0 | 3.0 | 0.00 | 0.03 | 0.03 | 93 | 1016.1 |
| 20260510075426 | 72 | 99 | 5.0 | 6.0 | 0.02 | 0.03 | 0.03 | 93 | 1015.6 |
| 20260510074415 | 72 | 64 | 2.0 | 2.0 | 0.03 | 0.03 | 0.03 | 93 | 1015.1 |
| 20260510073406 | 73 | 105 | 2.0 | 2.0 | 0.03 | 0.03 | 0.03 | 92 | 1014.4 |
| 20260510072454 | 73 | 77 | 5.0 | 6.0 | 0.03 | 0.03 | 0.03 | 92 | 1014.3 |
| 20260510071406 | 73 | 102 | 11.0 | 13.0 | 0.03 | 0.03 | 0.03 | 92 | 1013.8 |
| 20260510070414 | 73 | 84 | 5.0 | 6.0 | 0.03 | 0.03 | 0.03 | 92 | 1014.2 |
| 20260510065406 | 74 | 125 | 7.0 | 8.0 | 0.01 | 0.01 | 0.01 | 89 | 1014.4 |
| 20260510064415 | 75 | 69 | 3.0 | 5.0 | 0.00 | 0.00 | 0.00 | 86 | 1016.0 |
| 20260510063407 | 75 | 353 | 4.0 | 5.0 | 0.00 | 0.00 | 0.00 | 86 | 1015.7 |
| 20260510062435 | 75 | 22 | 4.0 | 6.0 | 0.00 | 0.00 | 0.00 | 86 | 1016.1 |
| 20260510061406 | 75 | 340 | 2.0 | 2.0 | 0.00 | 0.00 | 0.00 | 86 | 1016.1 |
| 20260510060414 | 75 | 328 | 8.0 | 11.0 | 0.00 | 0.00 | 0.00 | 86 | 1016.1 |
| 20260510055406 | 75 | 93 | 4.0 | 5.0 | 0.00 | 0.00 | 0.00 | 86 | 1014.9 |
| 20260510054414 | 75 | 112 | 3.0 | 3.0 | 0.00 | 0.00 | 0.00 | 85 | 1013.9 |
| 20260510053407 | 75 | 118 | 6.0 | 8.0 | 0.00 | 0.00 | 0.00 | 85 | 1013.6 |
| 20260510052415 | 75 | 127 | 3.0 | 6.0 | 0.00 | 0.00 | 0.00 | 84 | 1013.6 |
| 20260510051407 | 75 | 104 | 3.0 | 5.0 | 0.00 | 0.00 | 0.00 | 83 | 1013.2 |
| 20260510050434 | 75 | 115 | 7.0 | 9.0 | 0.00 | 0.00 | 0.00 | 83 | 1013.0 |
| 20260510045406 | 75 | 115 | 6.0 | 8.0 | 0.00 | 0.00 | 0.00 | 82 | 1013.1 |
| 20260510044415 | 75 | 113 | 4.0 | 5.0 | 0.00 | 0.00 | 0.00 | 81 | 1013.0 |
| 20260510043407 | 75 | 85 | 8.0 | 9.0 | 0.00 | 0.00 | 0.00 | 80 | 1012.9 |
| 20260510041427 | 74 | 114 | 3.0 | 5.0 | 0.00 | 0.00 | 0.00 | 79 | 1012.6 |
| 20260510040455 | 74 | 136 | 5.0 | 7.0 | 0.00 | 0.00 | 0.00 | 78 | 1012.7 |
| 20260510035407 | 74 | 111 | 3.0 | 3.0 | 0.00 | 0.00 | 0.00 | 79 | 1013.0 |
| 20260510034415 | 74 | 110 | 1.0 | 2.0 | 0.00 | 0.00 | 0.00 | 80 | 1012.8 |
| 20260510033407 | 74 | 103 | 1.0 | 2.0 | 0.00 | 0.00 | 0.00 | 80 | 1013.2 |
| 20260510031407 | 75 | 113 | 3.0 | 5.0 | 0.00 | 0.00 | 0.00 | 76 | 1013.1 |
| 20260510030435 | 75 | 0.0 | 0.0 | 0.00 | 0.00 | 0.00 | 75 | 1012.8 | |
| 20260510025407 | 75 | 97 | 3.0 | 3.0 | 0.00 | 0.00 | 0.00 | 75 | 1012.9 |
| 20260510024435 | 75 | 92 | 3.0 | 3.0 | 0.00 | 0.00 | 0.00 | 74 | 1013.0 |
| 20260510022456 | 76 | 106 | 2.0 | 2.0 | 0.00 | 0.00 | 0.00 | 72 | 1013.2 |
| 20260510021407 | 76 | 119 | 3.0 | 3.0 | 0.00 | 0.00 | 0.00 | 71 | 1012.8 |
| 20260510020415 | 77 | 124 | 2.0 | 2.0 | 0.00 | 0.00 | 0.00 | 70 | 1012.8 |
| 20260510015406 | 77 | 109 | 2.0 | 2.0 | 0.00 | 0.00 | 0.00 | 69 | 1012.7 |
| 20260510014415 | 78 | 98 | 5.0 | 6.0 | 0.00 | 0.00 | 0.00 | 68 | 1012.6 |
| 20260510013407 | 78 | 89 | 3.0 | 3.0 | 0.00 | 0.00 | 0.00 | 67 | 1012.5 |
| 20260510012415 | 78 | 112 | 2.0 | 2.0 | 0.00 | 0.00 | 0.00 | 67 | 1012.3 |
| 20260510011427 | 79 | 94 | 3.0 | 3.0 | 0.00 | 0.00 | 0.00 | 65 | 1012.1 |
| 20260510010415 | 80 | 89 | 3.0 | 3.0 | 0.00 | 0.00 | 0.00 | 64 | 1012.0 |
| 20260510005406 | 81 | 89 | 1.0 | 1.0 | 0.00 | 0.00 | 0.00 | 63 | 1011.9 |
| 20260510004415 | 81 | 0.0 | 0.0 | 0.00 | 0.00 | 0.00 | 61 | 1011.9 | |
| 20260510003407 | 82 | 93 | 4.0 | 5.0 | 0.00 | 0.00 | 0.00 | 60 | 1011.7 |
| 20260510002416 | 82 | 83 | 4.0 | 6.0 | 0.00 | 0.00 | 0.00 | 59 | 1012.0 |
| 20260510001427 | 83 | 0.0 | 0.0 | 0.00 | 0.00 | 0.00 | 59 | 1011.7 | |
| 20260510000418 | 83 | 89 | 3.0 | 6.0 | 0.00 | 0.00 | 0.00 | 58 | 1012.0 |
| 20260509235407 | 83 | 93 | 6.0 | 7.0 | 0.00 | 0.77 | 0.00 | 56 | 1012.0 |
| 20260509234416 | 84 | 95 | 2.0 | 3.0 | 0.00 | 0.77 | 0.00 | 55 | 1012.1 |
| 20260509233428 | 84 | 87 | 3.0 | 3.0 | 0.00 | 0.77 | 0.00 | 54 | 1012.2 |
| 20260509232435 | 84 | 98 | 2.0 | 2.0 | 0.00 | 0.77 | 0.00 | 53 | 1011.9 |
| 20260509231407 | 84 | 89 | 3.0 | 6.0 | 0.00 | 0.77 | 0.00 | 49 | 1011.9 |
| 20260509230416 | 84 | 98 | 5.0 | 6.0 | 0.00 | 0.77 | 0.00 | 50 | 1012.1 |
| 20260509225407 | 85 | 71 | 2.0 | 3.0 | 0.00 | 0.77 | 0.00 | 50 | 1012.2 |
| 20260509224436 | 84 | 71 | 3.0 | 5.0 | 0.00 | 0.77 | 0.00 | 47 | 1012.2 |
| 20260509223427 | 84 | 75 | 2.0 | 5.0 | 0.00 | 0.77 | 0.00 | 52 | 1011.7 |
| 20260509222415 | 84 | 97 | 2.0 | 3.0 | 0.00 | 0.77 | 0.00 | 53 | 1012.0 |
| 20260509221407 | 84 | 75 | 1.0 | 2.0 | 0.00 | 0.77 | 0.00 | 55 | 1012.0 |
| 20260509220435 | 84 | 73 | 9.0 | 9.0 | 0.00 | 0.77 | 0.00 | 54 | 1012.0 |
| 20260509215408 | 85 | 119 | 4.0 | 5.0 | 0.00 | 0.77 | 0.00 | 55 | 1012.0 |
| 20260509214436 | 84 | 44 | 3.0 | 5.0 | 0.00 | 0.77 | 0.00 | 58 | 1012.2 |
| 20260509213427 | 83 | 102 | 3.0 | 3.0 | 0.00 | 0.77 | 0.00 | 59 | 1012.2 |
| 20260509212555 | 83 | 60 | 6.0 | 8.0 | 0.00 | 0.77 | 0.00 | 60 | 1012.4 |
| 20260509211408 | 84 | 105 | 3.0 | 5.0 | 0.00 | 0.77 | 0.00 | 61 | 1012.4 |
| 20260509210415 | 84 | 78 | 7.0 | 8.0 | 0.00 | 0.77 | 0.00 | 60 | 1012.6 |
| 20260509205407 | 83 | 82 | 8.0 | 8.0 | 0.00 | 0.77 | 0.00 | 62 | 1012.7 |
| 20260509204416 | 83 | 66 | 5.0 | 9.0 | 0.00 | 0.77 | 0.00 | 63 | 1012.8 |
| 20260509203408 | 83 | 69 | 0.0 | 1.0 | 0.00 | 0.77 | 0.00 | 60 | 1012.9 |
| 20260509202415 | 84 | 0.0 | 0.0 | 0.00 | 0.77 | 0.00 | 61 | 1013.1 | |
| 20260509201408 | 84 | 27 | 5.0 | 7.0 | 0.00 | 0.77 | 0.00 | 61 | 1012.9 |
| 20260509200400 | 83 | 91 | 4.0 | 9.0 | 0.00 | 0.77 | 0.00 | 62 | 1012.9 |
| 20260509195334 | 83 | 111 | 0.0 | 1.0 | 0.00 | 0.77 | 0.00 | 62 | 1013.2 |
| 20260509194333 | 84 | 77 | 1.0 | 3.0 | 0.00 | 0.77 | 0.00 | 61 | 1013.1 |
| 20260509193334 | 83 | 86 | 9.0 | 9.0 | 0.00 | 0.77 | 0.00 | 63 | 1013.5 |
| 20260509192353 | 84 | 212 | 3.0 | 3.0 | 0.00 | 0.77 | 0.00 | 61 | 1013.5 |
| 20260509191353 | 84 | 40 | 1.0 | 1.0 | 0.00 | 0.77 | 0.00 | 62 | 1013.3 |
| 20260509190336 | 83 | 93 | 1.0 | 2.0 | 0.00 | 0.77 | 0.00 | 66 | 1013.5 |
| 20260509185333 | 83 | 77 | 3.0 | 5.0 | 0.00 | 0.77 | 0.00 | 64 | 1013.5 |
| 20260509184333 | 82 | 107 | 2.0 | 2.0 | 0.00 | 0.77 | 0.00 | 63 | 1013.7 |
| 20260509183353 | 83 | 0.0 | 0.0 | 0.00 | 0.77 | 0.00 | 64 | 1013.6 | |
| 20260509182333 | 83 | 121 | 3.0 | 3.0 | 0.00 | 0.77 | 0.00 | 64 | 1013.7 |
| 20260509181333 | 82 | 240 | 3.0 | 3.0 | 0.00 | 0.77 | 0.00 | 64 | 1013.9 |
| 20260509180334 | 82 | 109 | 2.0 | 2.0 | 0.00 | 0.77 | 0.00 | 67 | 1014.1 |
| 20260509175333 | 81 | 210 | 3.0 | 3.0 | 0.00 | 0.77 | 0.00 | 67 | 1014.1 |
| 20260509174353 | 81 | 64 | 2.0 | 3.0 | 0.00 | 0.77 | 0.00 | 68 | 1014.1 |
| 20260509173333 | 81 | 108 | 1.0 | 2.0 | 0.00 | 0.77 | 0.00 | 67 | 1014.3 |
| 20260509172333 | 80 | 120 | 1.0 | 1.0 | 0.00 | 0.77 | 0.00 | 69 | 1014.3 |
| 20260509171333 | 80 | 200 | 5.0 | 6.0 | 0.00 | 0.77 | 0.00 | 70 | 1014.5 |
| 20260509170353 | 79 | 69 | 4.0 | 5.0 | 0.00 | 0.77 | 0.00 | 72 | 1014.1 |
| 20260509165353 | 78 | 221 | 4.0 | 5.0 | 0.00 | 0.77 | 0.00 | 73 | 1014.3 |
| 20260509164353 | 78 | 101 | 2.0 | 3.0 | 0.00 | 0.77 | 0.00 | 74 | 1014.6 |
| 20260509163334 | 78 | 209 | 5.0 | 6.0 | 0.00 | 0.77 | 0.00 | 73 | 1014.4 |
| 20260509162333 | 77 | 131 | 1.0 | 1.0 | 0.00 | 0.77 | 0.00 | 75 | 1014.5 |
| 20260509161333 | 78 | 291 | 4.0 | 5.0 | 0.00 | 0.77 | 0.00 | 74 | 1014.3 |
| 20260509160353 | 77 | 59 | 7.0 | 8.0 | 0.00 | 0.77 | 0.00 | 76 | 1014.2 |
| 20260509155333 | 76 | 54 | 3.0 | 3.0 | 0.00 | 0.77 | 0.00 | 78 | 1014.4 |
| 20260509154354 | 76 | 285 | 5.0 | 6.0 | 0.00 | 0.77 | 0.00 | 80 | 1014.3 |